Weather History for KPOU - August, 2013

Change the Weather History Date:

Sunday, August 18, 2013

  Actual Average Record
Temperature  
Mean Temperature 68 °F 71 °F  
Max Temperature 76 °F 83 °F 94 °F (2002)
Min Temperature 59 °F 60 °F 43 °F (1954)
Degree Days  
Heating Degree Days 0 0  
Month to date heating degree days 3 0  
Since 1 June heating degree days 34 54  
Since 1 July heating degree days 3 5  
Cooling Degree Days 3 0  
Month to date cooling degree days 76 132  
Year to date cooling degree days 666 535  
Since 1 June cooling degree days 613 499  
Growing Degree Days 17 (Base 50)    
Moisture  
Dew Point 61 °F    
Average Humidity 83    
Maximum Humidity 97    
Minimum Humidity 68    
Precipitation  
Precipitation T in 0.13 in 3.67 in (1955)
Month to date precipitation 5.87 2.59  
Year to date precipitation 29.48 29.17  
Sea Level Pressure  
Sea Level Pressure 30.20 in    
Wind  
Wind Speed 0 mph (NNW)    
Max Wind Speed 5 mph    
Max Gust Speed 8 mph    
Visibility 9 miles    
Events Rain    
T = Trace of Precipitation, MM = Missing Value Source: NWS Daily Summary

Daily Weather History Graph

Daily Weather History Graph

Search for Another Location

Airport or City:

Trip Planner

Search our weather history database for the weather conditions in past years. The results will help you decide how hot, cold, wet, or windy it might be!

Date:

Astronomy

Aug. 18, 2013 Rise Set
Actual Time 6:07 AM EDT 7:50 PM EDT
Civil Twilight 5:37 AM EDT 8:19 PM EDT
Nautical Twilight 5:01 AM EDT 8:55 PM EDT
Astronomical Twilight 4:23 AM EDT 9:33 PM EDT
Moon 5:55 PM EDT (8/18) 3:12 AM EDT (8/18)
Length of Visible Light 14h 42m
Length of Day
13h 43m
Waxing Gibbous, 92% of the Moon is Illuminated
Aug 18
Waxing Gibbous
Aug 20
Full
Aug 28
Last Quarter
Sep 5
New
Sep 12
First Quarter

Hourly Weather History & Observations

Time (EDT) Temp. Dew Point Humidity Pressure Visibility Wind Dir Wind Speed Gust Speed Precip Events Conditions
12:53 AM 61.0 °F 59.0 °F 93% 30.25 in 9.0 mi Calm Calm - N/A   Clear
1:53 AM 61.0 °F 59.0 °F 93% 30.25 in 8.0 mi Calm Calm - N/A   Clear
2:53 AM 60.1 °F 57.9 °F 93% 30.25 in 8.0 mi Calm Calm - N/A   Clear
3:53 AM 60.1 °F 57.0 °F 90% 30.25 in 8.0 mi Calm Calm - N/A   Clear
4:53 AM 59.0 °F 57.0 °F 93% 30.24 in 7.0 mi Calm Calm - N/A   Clear
5:53 AM 59.0 °F 57.0 °F 93% 30.25 in 8.0 mi Calm Calm - N/A   Clear
6:53 AM 60.1 °F 57.9 °F 93% 30.25 in 7.0 mi Calm Calm - N/A   Clear
7:53 AM 61.0 °F 57.9 °F 90% 30.26 in 7.0 mi Calm Calm - N/A   Clear
8:53 AM 63.0 °F 60.1 °F 90% 30.26 in 10.0 mi Calm Calm - N/A   Clear
9:53 AM 64.9 °F 61.0 °F 87% 30.25 in 10.0 mi Calm Calm - N/A   Partly Cloudy
10:53 AM 71.1 °F 63.0 °F 75% 30.25 in 10.0 mi Calm Calm - N/A   Clear
11:53 AM 73.0 °F 63.0 °F 71% 30.24 in 10.0 mi Calm Calm - N/A   Clear
12:53 PM 73.0 °F 63.0 °F 71% 30.23 in 10.0 mi Calm Calm - N/A   Clear
1:53 PM 75.0 °F 64.0 °F 69% 30.21 in 10.0 mi Calm Calm - 0.00 in   Partly Cloudy
2:53 PM 75.0 °F 63.0 °F 66% 30.17 in 10.0 mi Calm Calm - 0.00 in Rain Light Rain
3:53 PM 73.9 °F 64.9 °F 73% 30.15 in 10.0 mi Calm Calm - 0.00 in Rain Light Rain
4:53 PM 75.0 °F 64.0 °F 69% 30.14 in 10.0 mi NNW 3.5 mph - 0.00 in   Clear
5:53 PM 73.9 °F 63.0 °F 68% 30.14 in 10.0 mi NW 3.5 mph - N/A   Overcast
6:53 PM 71.1 °F 64.9 °F 81% 30.12 in 10.0 mi Calm Calm - N/A   Overcast
7:53 PM 70.0 °F 66.0 °F 87% 30.13 in 10.0 mi Calm Calm - N/A   Clear
8:53 PM 66.9 °F 64.9 °F 93% 30.12 in 9.0 mi SE 3.5 mph - N/A   Clear
9:53 PM 64.9 °F 63.0 °F 93% 30.12 in 7.0 mi Calm Calm - N/A   Clear
10:53 PM 64.0 °F 62.1 °F 93% 30.12 in 6.0 mi Calm Calm - N/A   Clear
11:53 PM 64.0 °F 62.1 °F 93% 30.11 in 6.0 mi Calm Calm - N/A   Clear